POINT GARDNER AK US NWS current weather conditions

sailwx.info

Wind from 360 at 13 knots gusting 22

Air temperature -5.7° C
Dewpoint -12.0° C

Last reported at 2020-Jan-18 15:13 UTC.
Time now 2020-Jan-18 15:43 UTC

Location: N 57°01' W 134°37'.
View on Google Maps.

See reports from other nearby stations

  
Tides and Currents Weather Stations Pressure Air Temp Water Temp Dewpoint Dewpoint Depression Visibility Wind Speed Wind Dir Waves Ship Positions
date/time (UTC)wind fromknots sea level pressurealtimeterstation pressurevisibilityair tempwater tempwave heightnotes
2020-Jan-18 15:13 360 13 gusting 22 -5.7
2020-Jan-18 15:03 360 13 gusting 26 -5.7
2020-Jan-18 14:53 360 13 gusting 20 -6.0
2020-Jan-18 14:43 360 13 gusting 25 -6.0
2020-Jan-18 14:33 360 13 gusting 25 -6.1
2020-Jan-18 14:23 360 13 gusting 25 -6.0
2020-Jan-18 14:13 360 13 gusting 22 -6.1
2020-Jan-18 14:03 360 13 gusting 26 -6.1
2020-Jan-18 13:53 360 13 gusting 25 -6.2
2020-Jan-18 13:43 360 13 gusting 21 -6.1
2020-Jan-18 13:33 360 13 gusting 26 -6.3
2020-Jan-18 13:23 360 13 gusting 25 -6.1
2020-Jan-18 13:13 360 14 gusting 24 -6.2
2020-Jan-18 13:03 360 13 gusting 27 -6.1
2020-Jan-18 12:53 360 13 gusting 22 -6.2
2020-Jan-18 12:43 360 13 gusting 25 -6.1
2020-Jan-18 12:33 360 14 gusting 25 -6.2
2020-Jan-18 12:23 360 14 gusting 26 -6.2
2020-Jan-18 12:13 360 13 gusting 24 -6.3
2020-Jan-18 12:03 360 13 gusting 26 -6.4
2020-Jan-18 11:53 360 13 gusting 24 -6.5
2020-Jan-18 11:43 360 13 gusting 21 -6.3
2020-Jan-18 11:33 360 13 gusting 26 -6.2
2020-Jan-18 11:23 360 13 gusting 25 -6.3
2020-Jan-18 11:13 360 13 gusting 27 -6.3
2020-Jan-18 11:03 360 13 gusting 22 -6.1
2020-Jan-18 10:53 360 12 gusting 20 -6.1
2020-Jan-18 10:43 360 13 gusting 22 -6.1
2020-Jan-18 10:33 360 13 gusting 25 -6.0
2020-Jan-18 10:23 360 13 gusting 25 -6.0
2020-Jan-18 10:13 360 13 gusting 25 -6.0
2020-Jan-18 10:03 360 13 gusting 24 -5.9
2020-Jan-18 09:53 360 13 gusting 25 -6.1
2020-Jan-18 09:43 360 13 gusting 24 -6.1
2020-Jan-18 09:33 360 13 gusting 25 -6.0
2020-Jan-18 09:23 360 12 gusting 20 -5.9
2020-Jan-18 09:13 360 12 gusting 20 -5.9
2020-Jan-18 09:03 360 12 gusting 20 -5.9
2020-Jan-18 08:53 360 12 gusting 24 -5.8
2020-Jan-18 08:43 360 12 gusting 20 -5.7
2020-Jan-18 08:33 360 11 gusting 19 -5.8
2020-Jan-18 08:23 360 9 gusting 20 -5.7
2020-Jan-18 08:13 360 11 gusting 19 -5.8
2020-Jan-18 08:03 360 11 gusting 19 -5.8
2020-Jan-18 07:53 360 11 gusting 20 -5.8
2020-Jan-18 07:43 360 8 gusting 17 -5.8
2020-Jan-18 07:33 360 11 gusting 19 -5.8
2020-Jan-18 07:23 360 11 gusting 17 -5.7
2020-Jan-18 07:13 360 11 gusting 19 -5.6
2020-Jan-18 07:03 360 9 gusting 19 -5.5
2020-Jan-18 06:53 360 9 gusting 18 -5.6
2020-Jan-18 06:43 360 8 gusting 15 -5.6
2020-Jan-18 06:33 360 8 gusting 15 -5.6
2020-Jan-18 06:23 360 9 gusting 17 -5.6
2020-Jan-18 06:13 360 9 gusting 15 -5.6
2020-Jan-18 06:03 360 7 gusting 15 -5.6
2020-Jan-18 05:53 360 8 gusting 18 -5.7
2020-Jan-18 05:43 360 6 gusting 13 -5.7
2020-Jan-18 05:33 360 7 gusting 14 -5.6
2020-Jan-18 05:23 360 8 gusting 15 -5.7
2020-Jan-18 05:13 360 8 gusting 14 -5.7
2020-Jan-18 05:03 360 8 gusting 15 -5.7
2020-Jan-18 04:53 360 7 gusting 14 -5.7
2020-Jan-18 04:43 360 8 gusting 14 -5.7
2020-Jan-18 04:33 360 8 gusting 13 -5.6
2020-Jan-18 04:23 360 6 gusting 13 -5.7
2020-Jan-18 04:13 360 6 gusting 13 -5.7
2020-Jan-18 04:03 360 6 gusting 12 -5.6
2020-Jan-18 03:53 360 6 gusting 12 -5.6
2020-Jan-18 03:43 360 6 gusting 11 -5.6
2020-Jan-18 03:33 360 6 gusting 11 -5.7
2020-Jan-18 03:23 360 6 gusting 11 -5.7
2020-Jan-18 03:13 360 5 gusting 9 -5.8
2020-Jan-18 03:03 360 5 gusting 9 -5.8
2020-Jan-18 02:53 360 4 gusting 8 -5.8
2020-Jan-18 02:43 360 2 gusting 7 -5.8
2020-Jan-18 02:33 360 4 gusting 8 -5.8
2020-Jan-18 02:23 360 4 gusting 8 -5.8
2020-Jan-18 02:13 360 2 gusting 6 -5.8
2020-Jan-18 02:03 360 2 gusting 6 -5.8
2020-Jan-18 01:53 360 2 gusting 7 -5.7
2020-Jan-18 01:43 010 1 gusting 5 -5.6
2020-Jan-18 01:33 020 0 gusting 5 -5.5
2020-Jan-18 01:23 360 2 gusting 6 -5.5
2020-Jan-18 01:13 350 2 gusting 6 -5.4
2020-Jan-18 01:03 360 2 gusting 6 -5.3
2020-Jan-18 00:53 360 5 gusting 9 -5.3
2020-Jan-18 00:43 360 5 gusting 9 -5.1
2020-Jan-18 00:33 350 7 gusting 13 -5.1
2020-Jan-18 00:23 360 6 gusting 13 -5.2
2020-Jan-18 00:13 360 6 gusting 12 -5.1
2020-Jan-17 23:53 350 11 gusting 17 -5.3
2020-Jan-17 23:43 360 6 gusting 13 -5.0
2020-Jan-17 23:33 350 6 gusting 13 -5.1
2020-Jan-17 23:23 360 5 gusting 13 -5.0
2020-Jan-17 23:13 350 4 gusting 8 -5.1
2020-Jan-17 23:03 360 4 gusting 8 -5.0
2020-Jan-17 22:53 350 5 gusting 7 -5.1
2020-Jan-17 22:43 340 5 gusting 6 -5.1
2020-Jan-17 22:33 350 5 gusting 8 -5.1
2020-Jan-17 22:23 350 2 gusting 6 -5.1
2020-Jan-17 22:13 350 5 gusting 9 -5.1
2020-Jan-17 22:03 350 6 gusting 11 -5.2
2020-Jan-17 21:53 340 6 gusting 9 -5.2
2020-Jan-17 21:43 330 5 gusting 8 -5.2
2020-Jan-17 21:33 340 5 gusting 7 -5.1
2020-Jan-17 21:23 340 5 gusting 8 -5.3
2020-Jan-17 21:13 350 5 gusting 8 -5.3
2020-Jan-17 21:03 350 4 gusting 7 -5.4
2020-Jan-17 20:53 350 5 gusting 8 -5.5
2020-Jan-17 20:43 350 5 gusting 11 -5.5
2020-Jan-17 20:33 350 4 gusting 6 -5.5
2020-Jan-17 20:23 350 4 gusting 7 -5.4
2020-Jan-17 20:13 350 4 gusting 6 -5.5
2020-Jan-17 20:03 340 4 gusting 6 -5.7
2020-Jan-17 19:53 350 4 gusting 7 -5.9
2020-Jan-17 19:43 350 4 gusting 6 -5.9
2020-Jan-17 19:33 350 4 gusting 6 -5.7
2020-Jan-17 19:23 350 2 gusting 5 -5.7
2020-Jan-17 19:13 360 1 gusting 4 -5.8
2020-Jan-17 19:03 010 0 gusting 4 -6.0
2020-Jan-17 18:53 -6.4
2020-Jan-17 18:43 -6.7
2020-Jan-17 18:33 -6.8
2020-Jan-17 18:23 -6.9
2020-Jan-17 18:13 -6.9
2020-Jan-17 18:03 -6.8
2020-Jan-17 17:53 -6.9
2020-Jan-17 17:43 -7.1
2020-Jan-17 17:33 010 0 gusting 2 -7.0
2020-Jan-17 17:23 -7.0
2020-Jan-17 17:13 350 0 gusting 4 -7.0
2020-Jan-17 17:03 -6.7
2020-Jan-17 16:53 -6.8
2020-Jan-17 16:43 350 1 gusting 6 -6.9
2020-Jan-17 16:33 350 2 gusting 6 -6.9
2020-Jan-17 16:23 340 2 gusting 6 -6.8
2020-Jan-17 16:13 340 2 gusting 7 -6.8
2020-Jan-17 16:03 350 2 gusting 6 -6.9
2020-Jan-17 15:53 340 2 gusting 6 -6.8
2020-Jan-17 15:43 340 2 gusting 6 -6.8
2020-Jan-17 15:33 340 2 gusting 6 -6.8
2020-Jan-17 15:23 340 2 gusting 7 -6.7
2020-Jan-17 15:13 350 2 gusting 6 -6.7
2020-Jan-17 15:03 350 2 gusting 6 -6.7
2020-Jan-17 14:53 350 2 gusting 6 -6.7
2020-Jan-17 14:43 340 2 gusting 6 -6.7
2020-Jan-17 14:33 350 1 gusting 5 -6.7
2020-Jan-17 14:23 350 1 gusting 6 -6.8
2020-Jan-17 14:13 350 1 gusting 6 -6.7
2020-Jan-17 14:03 350 1 gusting 5 -6.7
2020-Jan-17 13:53 350 1 gusting 5 -6.6
2020-Jan-17 13:43 350 2 gusting 5 -6.7
2020-Jan-17 13:33 350 2 gusting 6 -6.8
2020-Jan-17 13:23 350 2 gusting 6 -6.8
2020-Jan-17 13:13 360 1 gusting 6 -6.7
2020-Jan-17 13:03 350 2 gusting 6 -6.8
2020-Jan-17 12:53 350 2 gusting 7 -6.8
2020-Jan-17 12:43 360 2 gusting 7 -6.8
2020-Jan-17 12:33 360 1 gusting 7 -6.8
2020-Jan-17 12:23 350 1 gusting 7 -6.7
2020-Jan-17 12:13 360 1 gusting 6 -6.7
2020-Jan-17 12:03 350 2 gusting 6 -6.8
2020-Jan-17 11:53 020 0 gusting 5 -6.8
2020-Jan-17 11:43 360 2 gusting 8 -6.9
2020-Jan-17 11:33 360 1 gusting 9 -6.9
2020-Jan-17 11:23 010 1 gusting 6 -6.9
2020-Jan-17 11:13 360 1 gusting 6 -7.0
2020-Jan-17 11:03 360 2 gusting 7 -7.0
2020-Jan-17 10:53 360 4 gusting 7 -7.1
2020-Jan-17 10:43 360 2 gusting 8 -7.1
2020-Jan-17 10:33 350 4 gusting 9 -7.1
2020-Jan-17 10:23 360 4 gusting 8 -7.2
2020-Jan-17 10:13 360 1 gusting 7 -7.2
2020-Jan-17 10:03 360 2 gusting 8 -7.2
2020-Jan-17 09:53 360 4 gusting 11 -7.1
2020-Jan-17 09:43 360 5 gusting 12 -7.2
2020-Jan-17 09:33 350 4 gusting 12 -7.2
2020-Jan-17 09:23 360 4 gusting 11 -7.2
2020-Jan-17 09:13 360 4 gusting 12 -7.1
2020-Jan-17 09:03 360 5 gusting 11 -7.1
2020-Jan-17 08:53 360 2 gusting 11 -7.0
2020-Jan-17 08:43 360 5 gusting 13 -7.2
2020-Jan-17 08:33 360 4 gusting 9 -7.2
2020-Jan-17 08:23 360 4 gusting 11 -7.2
2020-Jan-17 08:13 360 6 gusting 12 -7.2
2020-Jan-17 08:03 360 6 gusting 14 -7.2
2020-Jan-17 07:53 360 6 gusting 11 -7.2
2020-Jan-17 07:43 360 6 gusting 13 -7.2
2020-Jan-17 07:33 360 6 gusting 15 -7.2
2020-Jan-17 07:23 360 6 gusting 13 -6.9
2020-Jan-17 07:13 360 7 gusting 14 -6.9
2020-Jan-17 07:03 360 6 gusting 13 -7.0
2020-Jan-17 06:53 360 6 gusting 13 -7.0
2020-Jan-17 06:43 350 6 gusting 15 -6.9
2020-Jan-17 06:33 360 5 gusting 12 -6.9
2020-Jan-17 06:23 360 5 gusting 9 -6.9
2020-Jan-17 06:13 360 6 gusting 13 -6.8
2020-Jan-17 06:03 360 4 gusting 11 -6.6
2020-Jan-17 05:53 360 2 gusting 9 -6.6
2020-Jan-17 05:43 360 2 gusting 11 -6.5
2020-Jan-17 05:33 360 4 gusting 11 -6.5
2020-Jan-17 05:23 360 1 gusting 8 -6.5
2020-Jan-17 05:13 360 1 gusting 6 -6.5
2020-Jan-17 05:03 350 1 gusting 6 -6.6
2020-Jan-17 04:53 360 2 gusting 6 -6.6
2020-Jan-17 04:43 360 4 gusting 8 -6.5
2020-Jan-17 04:33 350 2 gusting 7 -6.5
2020-Jan-17 04:23 360 4 gusting 8 -6.5
2020-Jan-17 04:13 360 2 gusting 9 -6.5
2020-Jan-17 04:03 360 4 gusting 12 -6.5
2020-Jan-17 03:53 360 5 gusting 11 -6.5
2020-Jan-17 03:43 360 4 gusting 6 -6.5
2020-Jan-17 03:33 360 2 gusting 11 -6.5
2020-Jan-17 03:23 360 5 gusting 12 -6.5
2020-Jan-17 03:13 360 6 gusting 13 -6.5
2020-Jan-17 03:03 360 6 gusting 12 -6.5
2020-Jan-17 02:53 360 6 gusting 13 -6.5
2020-Jan-17 02:43 360 6 gusting 13 -6.5
2020-Jan-17 02:33 360 6 gusting 15 -6.5
2020-Jan-17 02:23 360 7 gusting 14 -6.3
2020-Jan-17 02:13 360 4 gusting 11 -6.2
2020-Jan-17 02:03 350 4 gusting 9 -6.4
2020-Jan-17 01:53 350 5 gusting 9 -6.4
2020-Jan-17 01:43 350 6 gusting 12 -6.4
2020-Jan-17 01:33 360 4 gusting 12 -6.5
2020-Jan-17 01:23 360 5 gusting 13 -6.5
2020-Jan-17 01:13 360 6 gusting 13 -6.4
2020-Jan-17 01:03 360 6 gusting 13 -6.4
2020-Jan-17 00:53 360 7 gusting 13 -6.3
2020-Jan-17 00:43 360 5 gusting 11 -6.3
2020-Jan-17 00:33 360 6 gusting 13 -6.3
2020-Jan-17 00:23 360 7 gusting 13 -6.1
2020-Jan-17 00:13 360 5 gusting 12 -6.1
2020-Jan-16 23:53 350 5 gusting 13 -6.3
2020-Jan-16 23:43 350 5 gusting 14 -6.2
2020-Jan-16 23:33 360 6 gusting 15 -6.2
2020-Jan-16 23:23 360 6 gusting 17 -6.0
2020-Jan-16 23:13 360 7 gusting 17 -6.0
2020-Jan-16 23:03 360 7 gusting 14 -6.0
2020-Jan-16 22:53 360 7 gusting 14 -6.1
2020-Jan-16 22:43 350 6 gusting 14 -6.1
2020-Jan-16 22:33 360 6 gusting 15 -6.0
2020-Jan-16 22:23 360 7 gusting 14 -6.1
2020-Jan-16 22:13 360 7 gusting 17 -6.2
2020-Jan-16 22:03 360 8 gusting 19 -6.2
2020-Jan-16 21:53 360 9 gusting 17 -6.1
2020-Jan-16 21:43 360 8 gusting 18 -6.1
2020-Jan-16 21:33 360 9 gusting 17 -6.2
2020-Jan-16 21:23 360 8 gusting 19 -6.2
2020-Jan-16 21:13 350 8 gusting 17 -6.1
2020-Jan-16 21:03 350 7 gusting 15 -6.3
2020-Jan-16 20:53 350 8 gusting 17 -6.4
2020-Jan-16 20:43 360 9 gusting 18 -6.5
2020-Jan-16 20:33 350 8 gusting 18 -6.6
2020-Jan-16 20:23 350 9 gusting 19 -6.6
2020-Jan-16 20:13 360 12 gusting 24 -6.6
2020-Jan-16 20:03 360 9 gusting 21 -6.5
2020-Jan-16 19:53 360 12 gusting 20 -6.6
2020-Jan-16 19:43 360 11 gusting 20 -6.7
2020-Jan-16 19:33 360 11 gusting 20 -6.7
2020-Jan-16 19:23 360 12 gusting 18 -7.0
2020-Jan-16 19:03 360 9 gusting 18 -7.0
2020-Jan-16 18:53 360 11 gusting 21 -6.8
2020-Jan-16 18:43 360 11 gusting 18 -7.1
2020-Jan-16 18:33 360 12 gusting 17 -7.0
2020-Jan-16 18:13 360 7 gusting 15 -7.3
2020-Jan-16 17:53 360 11 gusting 18 -7.4
2020-Jan-16 17:33 360 11 gusting 20 -7.7
2020-Jan-16 17:23 360 12 gusting 20 -7.7
2020-Jan-16 17:13 360 13 gusting 21 -7.8
2020-Jan-16 17:03 360 13 gusting 20 -7.7
2020-Jan-16 16:53 360 12 gusting 20 -7.9
2020-Jan-16 16:43 360 11 gusting 20 -8.0
2020-Jan-16 16:33 360 12 gusting 19 -7.8
2020-Jan-16 16:23 360 13 gusting 20 -7.7
2020-Jan-16 16:03 360 9 gusting 18 -7.8
2020-Jan-16 15:53 360 8 gusting 15 -7.9
2020-Jan-16 15:43 360 7 gusting 17 -7.8
2020-Jan-16 15:33 360 8 gusting 17 -7.8
2020-Jan-16 15:23 350 9 gusting 20 -7.8
2020-Jan-16 15:13 360 8 gusting 18 -7.8
2020-Jan-16 15:03 360 7 gusting 18 -7.8